{"data":{"norad_id":61003,"intl_designator":"2024-158P","name":"STARLINK-32279","alt_names":[],"object_type":"PAYLOAD","status":"ACTIVE","operator":null,"country":"US","launch_date":"2024-09-05","launch_site_code":"AFETR","launch_vehicle":null,"mission":null,"orbit_class":"UNKNOWN","rcs_meters":null,"size_class":null,"mass_kg":null,"dimensions":null,"purposes":["comms"],"wikipedia_slug":null,"has_3d_model":false,"image_url":null,"decayed_at":null,"tle_current":{"epoch":"2026-09-20T15:07:33.496320Z","epoch_age_seconds":180856,"freshness":"STALE","line1":"1 61003U 24158P   26263.63024880  .00001936  00000+0  68428-4 0  9990","line2":"2 61003  53.1609 236.7827 0001287  98.1783 261.9365 15.34394640115542","mean_motion":15.3439464,"eccentricity":0.0001287,"inclination_deg":53.1609,"raan_deg":236.7827,"arg_perigee_deg":98.1783,"mean_anomaly_deg":261.9365,"bstar":6.8428e-5,"rev_number":11554,"period_min":93.848085913543,"perigee_km":461.8387531138,"apogee_km":463.5995894923,"semimajor_km":6840.856171303,"source":"CELESTRAK","updated_at":"2026-09-22T09:00:49.297193Z"}}}